Hourly Data Report for August 17, 2019

QUALICUM BEACH AIRPORT
BRITISH COLUMBIA
Current Station Operator: ECCC - MSC

49°20'14.000" N
124°23'38.000" W
58.20 m
1026562
71766
VOQ

Download Data

Hourly Data (August 2019)
Hourly Data Report for August 17, 2019
TIME
LST
Temp Definition
°C
Dew Point Definition
°C
Rel Hum Definition
%
Precip. Amount Definition
mm

Wind Dir Definition
10's deg

Wind Spd Definition
km/h
Visibility Definition
km
Stn Press Definition
kPa
Hmdx Definition


Wind Chill Definition


Weather Definition


00:00 18.0 13.8 76 0.0 31 13   100.95     LegendNANA
01:00 17.6 13.4 77 0.0 32 8   100.94     LegendNANA
02:00 17.3 13.3 77 0.0 32 8   100.92     LegendNANA
03:00 17.0 13.5 80 0.0 30 3   100.89     LegendNANA
04:00 16.8 13.7 82 0.0 28 2   100.86     LegendNANA
05:00 16.7 13.4 81 0.0 29 4   100.86     LegendNANA
06:00 16.6 12.9 79 0.0 28 3   100.86     LegendNANA
07:00 17.1 12.7 75 0.0 25 3   100.84     LegendNANA
08:00 17.9 12.3 70 0.0 32 5   100.85     LegendNANA
09:00 18.1 12.6 70 0.0 33 9   100.86     LegendNANA
10:00 18.6 12.8 69 0.0 32 9   100.85     LegendNANA
11:00 18.6 12.8 69 0.0 33 10   100.84     LegendNANA
12:00 19.9 13.3 66 0.0 33 9   100.82     LegendNANA
13:00 19.9 13.4 66 0.0 35 7   100.79     LegendNANA
14:00 21.0 12.3 58 0.0 36 7   100.72     LegendNANA
15:00 21.2 13.2 60 0.0 3 7   100.67     LegendNANA
16:00 20.8 12.1 58 0.0 10 10   100.63     LegendNANA
17:00 20.2 14.1 68 0.0 4 5   100.60     LegendNANA
18:00 20.8 14.2 66 0.0 3 4   100.56     LegendNANA
19:00 19.3 14.5 74 0.0 3 4   100.54     LegendNANA
20:00 18.7 15.0 79 0.0 17 2   100.54     LegendNANA
21:00 18.0 14.6 81 0.0 22 4   100.54     LegendNANA
22:00 18.6 14.0 75 0.0 27 4   100.54     LegendNANA
23:00 17.3 13.4 78 0.0 35 3   100.52     LegendNANA

Notes on Data Quality.

Legend

  • E = Estimated
  • M = Missing
  • NA = Not Available*
  • [empty] = Indicates an unobserved value
Date modified: